Regional Weather Roundup
Issued by NWS

Home | Current Version | Previous Version | Text Only | Print | Product List | Glossary Off
Versions: 1 2 3 4 5 6 7 8 9 10 11 12 13 14 15 16 17 18 19 20 21 22 23 24 25 26 27 28 29 30 31 32 33 34 35 36 37 38 39 40 41 42 43 44 45 46 47 48 49 50

000
ASUS45 KCYS 250010
RWRWY

WYOMING REGIONAL WEATHER ROUNDUP
NATIONAL WEATHER SERVICE CHEYENNE WY
600 PM MDT THU JUL 24 2014

NOTE:  "FAIR" INDICATES FEW OR NO CLOUDS BELOW 12,000 FEET
WITH NO SIGNIFICANT WEATHER AND/OR OBSTRUCTIONS TO VISIBILITY.

WYZ001-250100-
YELLOWSTONE NATIONAL PARK

CITY           SKY/WX    TMP DP  RH WIND       PRES   REMARKS
LK YELLOWSTONE   N/A     68  27  21 SW8G20    30.23F
6HR MIN TEMP:  67; 6HR MAX TEMP:  72;

W YELLOWSTONE  NOT AVBL

$$
WYZ002>013-054>058-071-098>099-250100-
NORTHERN WYOMING

CITY           SKY/WX    TMP DP  RH WIND       PRES   REMARKS
JACKSON        NOT AVBL
CODY           SUNNY     88  32  13 W13G23    29.92
GREYBULL       MOSUNNY   99  18   5 W25G35    29.78S HX  92
6HR MIN TEMP:  95; 6HR MAX TEMP: 105;

WORLAND        SUNNY     96  25   8 SW22G36   29.81S HX  90
6HR MIN TEMP:  96; 6HR MAX TEMP: 102;

SHERIDAN       MOSUNNY   97  39  13 W14       29.76F HX  92
6HR MIN TEMP:  86; 6HR MAX TEMP: 100;

BUFFALO        MOSUNNY   95  33  11 NW10      29.87S HX  90
6HR MIN TEMP:  92; 6HR MAX TEMP: 100;

GILLETTE       MOSUNNY   98  33  10 SW22G31   29.76F HX  92
6HR MIN TEMP:  97; 6HR MAX TEMP: 101;

HULETT         FAIR      91  64  40 MISG      29.76  HX  93
NEWCASTLE      FAIR      99  30   9 W15       29.80  HX  92

$$
WYZ014>020-022>026-101>103-250100-
CENTRAL WYOMING

CITY           SKY/WX    TMP DP  RH WIND       PRES   REMARKS
BIG PINEY      SUNNY     84  31  14 NW18G25   30.17S
6HR MIN TEMP:  83; 6HR MAX TEMP:  87;

PINEDALE       CLEAR     79  30  17 W24G30    30.18R
DUBOIS         FAIR      77  19  11 NW23G31   30.15S
LANDER         SUNNY     93  27   9 W25G31    29.96F
6HR MIN TEMP:  90; 6HR MAX TEMP:  96;

RIVERTON       SUNNY     94  27   9 W20       29.96S
6HR MIN TEMP:  89; 6HR MAX TEMP:  96;

CASPER         MOSUNNY   92  38  15 SW20G25   29.93F
6HR MIN TEMP:  88; 6HR MAX TEMP:  96; 6HR PCP: TRACE;

DOUGLAS        PTSUNNY   90  44  20 W14       29.91F
6HR MIN TEMP:  90; 6HR MAX TEMP:  98;


$$
WYZ021-027>030-104>119-250100-
SOUTHERN WYOMING

CITY           SKY/WX    TMP DP  RH WIND       PRES   REMARKS
EVANSTON       SUNNY     83  34  17 W16       30.19F
6HR MIN TEMP:  80; 6HR MAX TEMP:  87;

KEMMERER       CLEAR     81  27  13 W24G33    30.20S
FORT BRIDGER   FAIR      88  30  12 W20G32    30.20S
ROCK SPRINGS   MOSUNNY   88  30  12 W23G33    30.11F
6HR MIN TEMP:  81; 6HR MAX TEMP:  91;

DIXON          FAIR      90  35  14 W16       30.16F
RAWLINS        MOSUNNY   86  36  16 SW17G23   30.12F
6HR MIN TEMP:  82; 6HR MAX TEMP:  89;

SARATOGA       FAIR      84  32  15 W24       30.17F
LARAMIE        MOSUNNY   81  46  29 W21       30.17F
6HR MIN TEMP:  73; 6HR MAX TEMP:  85;

CHEYENNE       MOSUNNY   86  46  24 W22G29    30.08F
6HR MIN TEMP:  79; 6HR MAX TEMP:  91;

TORRINGTON     PTSUNNY   97  45  16 W13       29.87F HX  93
6HR MIN TEMP:  94; 6HR MAX TEMP: 103;

PINE BLUFFS    FAIR      90  46  22 W16G25    30.01S

$$


USA.gov is the U.S. government's official web portal to all federal, state and local government web resources and services.